Satellite: PO-28
Catalog number: 22829
Epoch time:      08114.46177540
Element set:     927
Inclination:      098.3602 deg
RA of node:       078.5987 deg
Eccentricity:    0.0010477
Arg of perigee:   035.6699 deg
Mean anomaly:     324.5178 deg
Mean motion:   14.30186668 rev/day
Decay rate:       -2.7e-07 rev/day^2
Epoch rev:           76030
Checksum:              338

Satellite: GO-32
Catalog number: 25397
Epoch time:      08115.60684237
Element set:     582
Inclination:      098.3686 deg
RA of node:       153.4034 deg
Eccentricity:    0.0001891
Arg of perigee:   064.0857 deg
Mean anomaly:     296.0511 deg
Mean motion:   14.23141600 rev/day
Decay rate:      -1.11e-06 rev/day^2
Epoch rev:           50859
Checksum:              293

Satellite: MO-46
Catalog number: 26548
Epoch time:      08114.62227420
Element set:    0080
Inclination:      064.5565 deg
RA of node:       299.1149 deg
Eccentricity:    0.0023524
Arg of perigee:   331.9058 deg
Mean anomaly:     028.0773 deg
Mean motion:   14.83251442 rev/day
Decay rate:       -8.0e-07 rev/day^2
Epoch rev:           40972
Checksum:              296

Satellite: NO-44
Catalog number: 26931
Epoch time:      08114.85349754
Element set:    0862
Inclination:      067.0528 deg
RA of node:       064.6243 deg
Eccentricity:    0.0005986
Arg of perigee:   278.6409 deg
Mean anomaly:     081.4006 deg
Mean motion:   14.29520988 rev/day
Decay rate:       1.31e-06 rev/day^2
Epoch rev:           34264
Checksum:              322

Satellite: SO-50
Catalog number: 27607
Epoch time:      08114.69991080
Element set:     585
Inclination:      064.5594 deg
RA of node:       219.1133 deg
Eccentricity:    0.0083871
Arg of perigee:   290.1006 deg
Mean anomaly:     069.1079 deg
Mean motion:   14.71347486 rev/day
Decay rate:       -3.0e-08 rev/day^2
Epoch rev:           28695
Checksum:              322

Satellite: CO-55
Catalog number: 27844
Epoch time:      08114.56902835
Element set:    0289
Inclination:      098.7167 deg
RA of node:       123.5927 deg
Eccentricity:    0.0009023
Arg of perigee:   276.4588 deg
Mean anomaly:     083.5578 deg
Mean motion:   14.20574823 rev/day
Decay rate:       1.13e-06 rev/day^2
Epoch rev:           24968
Checksum:              343

Satellite: CO-57
Catalog number: 27848
Epoch time:      08114.55977377
Element set:    0241
Inclination:      098.7177 deg
RA of node:       122.6907 deg
Eccentricity:    0.0009064
Arg of perigee:   280.5976 deg
Mean anomaly:     079.4197 deg
Mean motion:   14.20384034 rev/day
Decay rate:        4.5e-07 rev/day^2
Epoch rev:           24965
Checksum:              346

Satellite: AO-51
Catalog number: 28375
Epoch time:      08114.59529631
Element set:    0084
Inclination:      098.0763 deg
RA of node:       142.2252 deg
Eccentricity:    0.0084199
Arg of perigee:   319.2524 deg
Mean anomaly:     040.2390 deg
Mean motion:   14.40604489 rev/day
Decay rate:        1.4e-07 rev/day^2
Epoch rev:           20054
Checksum:              290

Satellite: CO-56
Catalog number: 28941
Epoch time:      08115.42729535
Element set:     995
Inclination:      098.1037 deg
RA of node:       218.9086 deg
Eccentricity:    0.0175475
Arg of perigee:   235.8872 deg
Mean anomaly:     122.5644 deg
Mean motion:   15.53895215 rev/day
Decay rate:     3.5921e-04 rev/day^2
Epoch rev:           12168
Checksum:              350

Satellite: CP4
Catalog number: 31122
Epoch time:      08115.73308505
Element set:     321
Inclination:      098.0458 deg
RA of node:       183.3002 deg
Eccentricity:    0.0086691
Arg of perigee:   134.5428 deg
Mean anomaly:     226.2833 deg
Mean motion:   14.55115737 rev/day
Decay rate:       5.52e-06 rev/day^2
Epoch rev:            5430
Checksum:              271

Satellite: CP3
Catalog number: 31128
Epoch time:      08115.72036305
Element set:     314
Inclination:      098.0400 deg
RA of node:       181.4094 deg
Eccentricity:    0.0103852
Arg of perigee:   139.8000 deg
Mean anomaly:     221.0970 deg
Mean motion:   14.51937465 rev/day
Decay rate:       -4.6e-07 rev/day^2
Epoch rev:            5417
Checksum:              259

Satellite: LIBERT
Catalog number: 31129
Epoch time:      08115.62889608
Element set:     915
Inclination:      098.0427 deg
RA of node:       181.3607 deg
Eccentricity:    0.0103297
Arg of perigee:   139.9984 deg
Mean anomaly:     220.8856 deg
Mean motion:   14.52028250 rev/day
Decay rate:       3.40e-06 rev/day^2
Epoch rev:            5414
Checksum:              304

/EX
SB KEPS @ AMSAT  $ORB08115.W
Orbital Elements  08115.WEATHER

HR AMSAT ORBITAL ELEMENTS FOR WEATHER SATELLITES
FROM WA5QGD FORT WORTH,TX April 24, 2008
Send Subscribe/unsubscribe to KEPS at 
http://www.amsat.org/mailman/listinfo/keps
BID: ORB08115.W
TO ALL RADIO AMATEURS BT

Satellite: NOAA-10
Catalog number: 16969
Epoch time:      08114.61745270
Element set:      96
Inclination:      098.7254 deg
RA of node:       136.6882 deg
Eccentricity:    0.0012075
Arg of perigee:   344.6664 deg
Mean anomaly:     015.4158 deg
Mean motion:   14.27356485 rev/day
Decay rate:      -1.50e-06 rev/day^2
Epoch rev:           12365
Checksum:              313

